Flag for Brazil Weather past 2 weeks in Recife, Pernambuco, Brazil

Now
77 °F

Passing clouds.


Feels Like: 78 °F
Forecast: 78 / 85 °F
Wind: 5 mph from Southwest

Location: Recife Aeroporto

Current Time: Apr 1, 2015 at 2:29:31 AM

Latest Report: Apr 1, 2015 at 2:00 AM


Visibility: N/A

Pressure: 29.89 "Hg

Humidity: 83%

Dew point: 72 °F

Location of RecifeLocation

Historic Weather in Recife — Graph

°F

Recife temperature yesterday

Maximum temperature yesterday: 86 °F (at 11:00 AM)
Minimum temperature yesterday: 75 °F (at 3:00 AM)
Average temperature yesterday: 81 °F

Past Weeks' High & Low Weather Summary

 TemperatureHumidityPressure
High88 °F (Mar 25, 2:00 PM)100% (Mar 20, 3:00 AM)30.04 "Hg (Mar 20, 3:00 AM)
Low73 °F (Mar 22, 7:00 AM)62% (Mar 27, 4:00 PM)29.77 "Hg (Mar 20, 4:00 AM)
Average81 °F78%29.91 "Hg
* Reported Mar 17 1:00 AM — Apr 1 1:00 AM, Recife, Weather by CustomWeather, © 2015

Note: Actual official high and low records may vary slightly from our data, if they occured in-between our weather recording intervals... More about our weather records

Advertising

Recife weather history for previous 24 hours

 ConditionsComfort  
Time TempWeatherWind HumidityBarometerVisibility
1:00 AM
Wed, Apr 1
79 °FPassing clouds.7 mph74%29.89 "HgN/A
12:00 AM81 °FPassing clouds.8 mph70%29.92 "HgN/A
11:00 PM
Tue, Mar 31
81 °FPassing clouds.7 mph70%29.92 "HgN/A
10:00 PM81 °FPassing clouds.7 mph74%29.92 "HgN/A
9:00 PM81 °FPassing clouds.10 mph74%29.92 "HgN/A
8:00 PM81 °FClear.12 mph74%29.89 "Hg10 mi
7:00 PM81 °FClear.9 mph70%29.89 "Hg10 mi
6:00 PM81 °FPassing clouds.8 mph70%29.86 "HgN/A
5:00 PM82 °FPassing clouds.10 mph70%29.86 "HgN/A
4:00 PM84 °FPassing clouds.8 mph66%29.86 "HgN/A
3:00 PM84 °FPassing clouds.9 mph66%29.86 "HgN/A
2:00 PM86 °FPassing clouds.9 mph62%29.86 "HgN/A
1:00 PM84 °FPassing clouds.10 mph66%29.89 "HgN/A
12:00 PM86 °FScattered clouds.12 mph62%29.92 "HgN/A
11:00 AM86 °FScattered clouds.10 mph62%29.92 "HgN/A
10:00 AM84 °FScattered clouds.10 mph66%29.95 "HgN/A
9:00 AM84 °FScattered clouds.12 mph70%29.95 "HgN/A
8:00 AM84 °FPassing clouds.10 mph66%29.95 "HgN/A
7:00 AM79 °FScattered clouds.7 mph84%29.92 "HgN/A
6:00 AM77 °FScattered clouds.6 mph83%29.92 "HgN/A
5:00 AM75 °FPassing clouds.6 mph89%29.89 "HgN/A
4:00 AM75 °FPassing clouds.No wind89%29.89 "HgN/A
3:00 AM75 °FPassing clouds.5 mph89%29.89 "HgN/A
2:00 AM77 °FPassing clouds.6 mph83%29.89 "HgN/A
Weather by CustomWeather, © 2015

See weather overviewHow to use our weather pages